{"data":{"norad_id":36036,"epoch":"2026-09-19T23:35:00.546144Z","epoch_age_seconds":58992,"freshness":"FRESH","line1":"1 36036U 09059A   26262.98264521  .00000179  00000+0  71124-4 0  9991","line2":"2 36036  98.4434  88.9414 0001276  78.2335 281.8996 14.39767527887096","mean_motion":14.39767527,"eccentricity":0.0001276,"inclination_deg":98.4434,"raan_deg":88.9414,"arg_perigee_deg":78.2335,"mean_anomaly_deg":281.8996,"bstar":7.1124e-5,"rev_number":88709,"period_min":100.01614656503,"perigee_km":758.35591664489,"apogee_km":760.17738205621,"semimajor_km":7137.4036493505,"source":"CELESTRAK","updated_at":"2026-09-20T09:00:33.890541Z"}}